User: anonymous   Login
Location: Unspecified
(0.0000°N, 0.0000°E)
Time: 19:41:36
(UTC+00:00)
Language:

Nadezhda 4 - Orbit

View from above orbital plane
View from above orbital plane
View from above satellite
View from above satellite

Ground track
Ground track

The orbit data is extracted from the following two-line orbital elements,

1 23179U 94041A   19077.78260552 +.00000013 +00000-0 -20779-5 0  9994
2 23179 082.9498 192.5560 0033937 296.9009 216.2236 13.76552269239486
Epoch (UTC): 18 March 2019 18:46:57
Eccentricity: 0.0033937
inclination: 82.9498°
perigee height: 951 km
apogee height: 1001 km
right ascension of ascending node: 192.5560°
argument of perigee: 296.9009°
revolutions per day: 13.76552269
mean anomaly at epoch: 216.2236°
orbit number at epoch: 23948

The dashed part of the orbit path shows where the satellite is in the earth's shadow,  

DLR